Regional Weather Roundup
Issued by NWS

Home | Current Version | Previous Version | Text Only | Print | Product List | Glossary On
Versions: 1 2 3 4 5 6 7 8 9 10 11 12 13 14 15 16 17 18 19 20 21 22 23 24 25 26 27 28
000
ASUS46 KSEW 180110
RWRWA

WASHINGTON REGIONAL WEATHER ROUNDUP
NATIONAL WEATHER SERVICE SEATTLE WA
500 PM PST FRI NOV 17 2017

NOTE:"FAIR" INDICATES FEW OR NO CLOUDS BELOW 12,000 FEET WITH NO
SIGNIFICANT WEATHER AND/OR OBSTRUCTIONS TO VISIBILITY.

WAZ507-509-555>559-180200-
SEATTLE, TACOMA, EVERETT, AND VICINITY

CITY           SKY/WX    TMP DP  RH WIND       PRES   REMARKS
EVERETT        MOCLDY    46  39  76 SE3       30.20R
BOEING FIELD   MOCLDY    47  39  74 S8        30.22R
RENTON         MOCLDY    47  40  76 SE10      30.22R
SEATAC AIRPORT MOCLDY    45  39  79 S13       30.21R
JBLM-MCCHORD   MOCLDY    41  41 100 S7        30.24R
PUYALLUP       CLOUDY    43  43 100 CALM      30.24R
BREMERTON      PTCLDY    42  39  89 S8        30.21R
JBLM-FT LEWIS  PTCLDY    41  41 100 SE6       30.23R
TACOMA NARROWS MOCLDY    44  40  85 S10       30.22R
$$

WAZ001-503-506-510-514-515-180200-
NORTH INTERIOR

CITY           SKY/WX    TMP DP  RH WIND       PRES   REMARKS
BELLINGHAM     CLOUDY    47  38  71 S6        30.19R
FRIDAY HARBOR  CLOUDY    45  38  76 CALM      30.21R
EASTSOUND      CLOUDY    46  37  71 CALM      30.20R
PORT ANGELES   CLOUDY    46  39  76 SE3       30.20R
EDIZ HOOK      CLOUDY    47  38  70 E6        30.21R
PORT TOWNSEND  MOCLDY    41  39  93 CALM      30.21R
NAS WHIDBEY    CLOUDY    47  36  65 CALM      30.25R
ARLINGTON      CLOUDY    45  39  79 E5        30.22R
BURLINGTON     CLOUDY    43  41  93 CALM      30.21R
$$

WAZ020-022-039-040-504-511-512-180200-
SOUTHWEST INTERIOR

CITY           SKY/WX    TMP DP  RH WIND       PRES   REMARKS
SHELTON        CLOUDY    43  40  89 SW6       30.20R
OLYMPIA        PTCLDY    42  40  92 S7        30.24R
CHEHALIS       MOCLDY    43  43 100 CALM      30.25R FOG
KELSO          MOCLDY    47  43  86 SE3       30.29R
VANCOUVER      CLOUDY    50  42  74 CALM      30.29R
SCAPPOOSE, OR  MOCLDY    46  42  86 N3        30.28R
PORTLAND, OR   MOCLDY    48  42  80 S8        30.30R
$$

WAZ021-516-517-180200-
WASHINGTON COAST

CITY           SKY/WX    TMP DP  RH WIND       PRES   REMARKS
FORKS          CLOUDY    44  42  93 E3        30.19R
HOQUIAM        LGT RAIN  47  43  86 S6        30.23R
ASTORIA, OR    CLOUDY    48  42  80 SW6       30.25R
$$

WAZ019-023-024-040-567>569-180200-
CASCADE MOUNTAINS AND COLUMBIA GORGE

CITY           SKY/WX    TMP DP  RH WIND       PRES   REMARKS
STAMPEDE PASS  SNOW      30  30 100 SW9G21    30.09R VSB 1/2
TROUTDALE, OR  CLOUDY    49  43  80 SW7       30.29R
HOOD RIVER, OR PTCLDY    43  37  81 CALM      30.24R
THE DALLES, OR PTCLDY    47  39  74 W8        30.23R
$$

WAZ026-027-041>044-520-521-180200-
EAST SLOPES

CITY           SKY/WX    TMP DP  RH WIND       PRES   REMARKS
OMAK           MOCLDY    41  29  62 E7        30.04R
WENATCHEE      CLOUDY    44  27  51 NW7       30.09R
ELLENSBURG     CLOUDY    40  32  73 NW18      30.12R
YAKIMA         CLOUDY    49  27  42 NW14      30.14R
SUNNYSIDE ARPT PTCLDY    42  31  64 CALM      30.16R
YAKIMA TC      MOCLDY    45  27  49 NW5       30.11R
$$

WAZ028-034-035-180200-
COLUMBIA BASIN

CITY           SKY/WX    TMP DP  RH WIND       PRES   REMARKS
EPHRATA        MOCLDY    43  25  49 W9        30.09R
MOSES LAKE     PTCLDY    42  29  59 SW10      30.11R
PASCO          CLEAR     48  33  56 W17       30.18R
RICHLAND ARPT  CLEAR     48  35  59 SW12G17   30.18R
HERMISTON, OR  CLEAR     47  33  58 W18       30.20R
$$

WAZ036>038-180200-
NORTHEAST WASHINGTON

CITY           SKY/WX    TMP DP  RH WIND       PRES   REMARKS
SPOKANE GEIGER PTCLDY    39  28  64 SW16      30.06R
SPOKANE FELTS  MOCLDY    43  28  55 SW15      30.08R
FAIRCHILD AFB  CLEAR     37  28  69 SW14      30.06R
COEURDALENE,ID CLOUDY    41  28  60 SW13      30.07R
DEER PARK      FAIR      33  24  69 S7        30.06R
$$

WAZ029>033-180200-
SOUTHEAST WASHINGTON

CITY           SKY/WX    TMP DP  RH WIND       PRES   REMARKS
PULLMAN        MOCLDY    38  30  73 SW16      30.14R
LEWISTON, ID   CLEAR     41  29  62 S6        30.17R
WALLA WALLA    CLEAR     44  33  65 SW12      30.18R
PENDLETON, OR  CLEAR     41  32  70 W10       30.19R
$$




USA.gov is the U.S. government's official web portal to all federal, state and local government web resources and services.